This is the latest recevied weather packets stored in our database for station/object K7AEL. If no packets are shown the sender has not sent any weather packets the latest 10 day(s).
| Time | Temp. | Humidity | Pressure | Rain* | Wind** | Luminosity | Snow |
|---|---|---|---|---|---|---|---|
| 1777687651 | 27.22° C | 21% | 1011.1 hPa | 0 mm | - | 2 W/m² | - |
| 1777687348 | 27.78° C | 21% | 1011 hPa | 0 mm | - | 4 W/m² | - |
| 1777687046 | 27.78° C | 21% | 1011 hPa | 0 mm | - | 7 W/m² | - |
| 1777686742 | 27.78° C | 21% | 1011 hPa | 0 mm | - | 10 W/m² | - |
| 1777686440 | 28.33° C | 21% | 1011 hPa | 0 mm | - | 13 W/m² | - |
| 1777686137 | 28.33° C | 21% | 1010.9 hPa | 0 mm | - | 17 W/m² | - |
| 1777685833 | 28.89° C | 20% | 1010.9 hPa | 0 mm | - | 21 W/m² | - |
| 1777685528 | 28.89° C | 21% | 1010.8 hPa | 0 mm | - | 25 W/m² | - |
| 1777685225 | 28.89° C | 20% | 1010.8 hPa | 0 mm | - | 30 W/m² | - |
| 1777684923 | 28.89° C | 20% | 1010.7 hPa | 0 mm | - | 31 W/m² | - |
| 1777684620 | 28.89° C | 20% | 1010.9 hPa | 0 mm | - | 27 W/m² | - |
| 1777684316 | 29.44° C | 20% | 1010.9 hPa | 0 mm | - | 48 W/m² | - |
| 1777684014 | 29.44° C | 19% | 1010.7 hPa | 0 mm | - | 56 W/m² | - |
| 1777683710 | 29.44° C | 20% | 1010.8 hPa | 0 mm | - | 63 W/m² | - |
| 1777683407 | 29.44° C | 19% | 1010.7 hPa | 0 mm | - | 71 W/m² | - |
| 1777683105 | 29.44° C | 19% | 1010.9 hPa | 0 mm | - | 83 W/m² | - |
| 1777682801 | 30° C | 19% | 1010.6 hPa | 0 mm | - | 99 W/m² | - |
| 1777682497 | 29.44° C | 20% | 1010.8 hPa | 0 mm | - | 111 W/m² | - |
| 1777682196 | 30° C | 19% | 1010.7 hPa | 0 mm | - | 122 W/m² | - |
| 1777681892 | 30° C | 19% | 1010.6 hPa | 0 mm | - | 134 W/m² | - |
| 1777681588 | 30° C | 18% | 1010.7 hPa | 0 mm | - | 141 W/m² | - |
| 1777681286 | 30.56° C | 18% | 1010.7 hPa | 0 mm | - | 154 W/m² | - |
| 1777680983 | 30° C | 18% | 1010.7 hPa | 0 mm | - | 168 W/m² | - |
| 1777680680 | 30.56° C | 18% | 1010.7 hPa | 0 mm | - | 176 W/m² | - |
| 1777680379 | 30.56° C | 18% | 1010.6 hPa | 0 mm | - | 188 W/m² | - |
* Rain latest hour (hover to see other rain measurements)
** Current wind speed in m/s (hover to see current wind gust speed)